owner,sensor,date,latitude,longitude,vertical_datum,wind_speed,wind_to_direction,wind_speed_of_gust,qcFlag 
WAVCIS,ioos:station:WAVCIS:CSI16:1,2009-11-01T00:00:00Z,29.4012,-89.0355,10.0,7.88,344.0,,'11111222,11111222,99999999' 
WAVCIS,ioos:station:WAVCIS:CSI16:1,2009-11-01T01:00:00Z,29.4012,-89.0355,10.0,9.38,348.0,,'11111222,11111222,99999999' 
WAVCIS,ioos:station:WAVCIS:CSI16:1,2009-11-01T02:00:00Z,29.4012,-89.0355,10.0,8.69,353.0,,'11111222,11111222,99999999' 
WAVCIS,ioos:station:WAVCIS:CSI16:1,2009-11-01T03:00:00Z,29.4012,-89.0355,10.0,8.87,352.0,,'11111222,11111222,99999999' 
WAVCIS,ioos:station:WAVCIS:CSI16:1,2009-11-01T04:00:00Z,29.4012,-89.0355,10.0,8.02,5.0,,'11111222,11111222,99999999' 
WAVCIS,ioos:station:WAVCIS:CSI16:1,2009-11-01T05:00:00Z,29.4012,-89.0355,10.0,7.25,5.0,,'11111222,11111222,99999999' 
WAVCIS,ioos:station:WAVCIS:CSI16:1,2009-11-01T06:00:00Z,29.4012,-89.0355,10.0,7.53,8.0,,'11111222,11111222,99999999' 
WAVCIS,ioos:station:WAVCIS:CSI16:1,2009-11-01T07:00:00Z,29.4012,-89.0355,10.0,8.25,11.0,,'11111222,11111222,99999999' 
WAVCIS,ioos:station:WAVCIS:CSI16:1,2009-11-01T08:00:00Z,29.4012,-89.0355,10.0,9.03,18.0,,'11111222,11111222,99999999' 
WAVCIS,ioos:station:WAVCIS:CSI16:1,2009-11-01T09:00:00Z,29.4012,-89.0355,10.0,9.76,16.0,,'11111222,11111222,99999999' 
WAVCIS,ioos:station:WAVCIS:CSI16:1,2009-11-01T10:00:00Z,29.4012,-89.0355,10.0,10.53,13.0,,'11111222,11111222,99999999' 
WAVCIS,ioos:station:WAVCIS:CSI16:1,2009-11-01T11:00:00Z,29.4012,-89.0355,10.0,9.95,13.0,,'11111222,11111222,99999999' 
WAVCIS,ioos:station:WAVCIS:CSI16:1,2009-11-01T12:00:00Z,29.4012,-89.0355,10.0,9.2,21.0,,'11111222,11111222,99999999' 
WAVCIS,ioos:station:WAVCIS:CSI16:1,2009-11-01T13:00:00Z,29.4012,-89.0355,10.0,7.55,21.0,,'11111222,11111222,99999999' 
WAVCIS,ioos:station:WAVCIS:CSI16:1,2009-11-01T14:00:00Z,29.4012,-89.0355,10.0,6.631,23.0,,'11111222,11111222,99999999' 
WAVCIS,ioos:station:WAVCIS:CSI16:1,2009-11-01T15:00:00Z,29.4012,-89.0355,10.0,7.83,22.0,,'11111222,11111222,99999999' 
WAVCIS,ioos:station:WAVCIS:CSI16:1,2009-11-01T16:00:00Z,29.4012,-89.0355,10.0,7.29,21.0,,'11111222,11111222,99999999' 
WAVCIS,ioos:station:WAVCIS:CSI16:1,2009-11-01T17:00:00Z,29.4012,-89.0355,10.0,7.02,22.0,,'11111222,11111222,99999999' 
WAVCIS,ioos:station:WAVCIS:CSI16:1,2009-11-01T18:00:00Z,29.4012,-89.0355,10.0,7.27,21.0,,'11111222,11111222,99999999' 
WAVCIS,ioos:station:WAVCIS:CSI16:1,2009-11-01T19:00:00Z,29.4012,-89.0355,10.0,6.99,14.0,,'11111222,11111222,99999999' 
WAVCIS,ioos:station:WAVCIS:CSI16:1,2009-11-01T20:00:00Z,29.4012,-89.0355,10.0,7.33,3.0,,'11111222,11111222,99999999' 
WAVCIS,ioos:station:WAVCIS:CSI16:1,2009-11-01T21:00:00Z,29.4012,-89.0355,10.0,6.736,2.0,,'11111222,11111222,99999999' 
WAVCIS,ioos:station:WAVCIS:CSI16:1,2009-11-01T22:00:00Z,29.4012,-89.0355,10.0,6.032,4.0,,'11111222,11111222,99999999' 
WAVCIS,ioos:station:WAVCIS:CSI16:1,2009-11-01T23:00:00Z,29.4012,-89.0355,10.0,5.829,349.0,,'11111222,11111222,99999999' 
WAVCIS,ioos:station:WAVCIS:CSI16:1,2009-11-02T00:00:00Z,29.4012,-89.0355,10.0,5.433,353.0,,'11111222,11111222,99999999' 
WAVCIS,ioos:station:WAVCIS:CSI16:1,2009-11-02T01:00:00Z,29.4012,-89.0355,10.0,5.736,338.0,,'11111222,11111222,99999999' 
WAVCIS,ioos:station:WAVCIS:CSI16:1,2009-11-02T02:00:00Z,29.4012,-89.0355,10.0,5.121,338.0,,'11111222,11111222,99999999' 
WAVCIS,ioos:station:WAVCIS:CSI16:1,2009-11-02T03:00:00Z,29.4012,-89.0355,10.0,3.905,335.0,,'11111222,11111222,99999999' 
WAVCIS,ioos:station:WAVCIS:CSI16:1,2009-11-02T04:00:00Z,29.4012,-89.0355,10.0,7.11,23.0,,'11111222,11111222,99999999' 
WAVCIS,ioos:station:WAVCIS:CSI16:1,2009-11-02T05:00:00Z,29.4012,-89.0355,10.0,6.874,21.0,,'11111222,11111222,99999999' 
WAVCIS,ioos:station:WAVCIS:CSI16:1,2009-11-02T06:00:00Z,29.4012,-89.0355,10.0,4.134,25.0,,'11111222,11111222,99999999' 
WAVCIS,ioos:station:WAVCIS:CSI16:1,2009-11-02T07:00:00Z,29.4012,-89.0355,10.0,6.497,23.0,,'11111222,11111222,99999999' 
WAVCIS,ioos:station:WAVCIS:CSI16:1,2009-11-02T08:00:00Z,29.4012,-89.0355,10.0,4.973,22.0,,'11111222,11111222,99999999' 
WAVCIS,ioos:station:WAVCIS:CSI16:1,2009-11-02T09:00:00Z,29.4012,-89.0355,10.0,6.529,21.0,,'11111222,11111222,99999999' 
WAVCIS,ioos:station:WAVCIS:CSI16:1,2009-11-02T10:00:00Z,29.4012,-89.0355,10.0,6.111,21.0,,'11111222,11111222,99999999' 
WAVCIS,ioos:station:WAVCIS:CSI16:1,2009-11-02T11:00:00Z,29.4012,-89.0355,10.0,5.057,18.0,,'11111222,11111222,99999999' 
WAVCIS,ioos:station:WAVCIS:CSI16:1,2009-11-02T12:00:00Z,29.4012,-89.0355,10.0,4.972,21.0,,'11111222,11111222,99999999' 
WAVCIS,ioos:station:WAVCIS:CSI16:1,2009-11-02T13:00:00Z,29.4012,-89.0355,10.0,4.464,21.0,,'11111222,11111222,99999999' 
WAVCIS,ioos:station:WAVCIS:CSI16:1,2009-11-02T14:00:00Z,29.4012,-89.0355,10.0,5.13,20.0,,'11111222,11111222,99999999' 
WAVCIS,ioos:station:WAVCIS:CSI16:1,2009-11-02T15:00:00Z,29.4012,-89.0355,10.0,6.204,21.0,,'11111222,11111222,99999999' 
WAVCIS,ioos:station:WAVCIS:CSI16:1,2009-11-02T16:00:00Z,29.4012,-89.0355,10.0,6.813,18.0,,'11111222,11111222,99999999' 
WAVCIS,ioos:station:WAVCIS:CSI16:1,2009-11-02T17:00:00Z,29.4012,-89.0355,10.0,6.296,14.0,,'11111222,11111222,99999999' 
WAVCIS,ioos:station:WAVCIS:CSI16:1,2009-11-02T18:00:00Z,29.4012,-89.0355,10.0,6.246,12.0,,'11111222,11111222,99999999' 
WAVCIS,ioos:station:WAVCIS:CSI16:1,2009-11-02T19:00:00Z,29.4012,-89.0355,10.0,5.642,15.0,,'11111222,11111222,99999999' 
WAVCIS,ioos:station:WAVCIS:CSI16:1,2009-11-02T20:00:00Z,29.4012,-89.0355,10.0,5.425,16.0,,'11111222,11111222,99999999' 
WAVCIS,ioos:station:WAVCIS:CSI16:1,2009-11-02T21:00:00Z,29.4012,-89.0355,10.0,5.06,18.0,,'11111222,11111222,99999999' 
WAVCIS,ioos:station:WAVCIS:CSI16:1,2009-11-02T22:00:00Z,29.4012,-89.0355,10.0,5.342,17.0,,'11111222,11111222,99999999' 
WAVCIS,ioos:station:WAVCIS:CSI16:1,2009-11-02T23:00:00Z,29.4012,-89.0355,10.0,3.16,25.0,,'11111222,11111222,99999999' 
WAVCIS,ioos:station:WAVCIS:CSI16:1,2009-11-03T00:00:00Z,29.4012,-89.0355,10.0,3.469,22.0,,'11111222,11111222,99999999' 
WAVCIS,ioos:station:WAVCIS:CSI16:1,2009-11-03T01:00:00Z,29.4012,-89.0355,10.0,2.94,17.0,,'11111222,11111222,99999999' 
WAVCIS,ioos:station:WAVCIS:CSI16:1,2009-11-03T02:00:00Z,29.4012,-89.0355,10.0,1.762,54.0,,'11111222,11111222,99999999' 
WAVCIS,ioos:station:WAVCIS:CSI16:1,2009-11-03T03:00:00Z,29.4012,-89.0355,10.0,2.826,37.0,,'11111222,11111222,99999999' 
WAVCIS,ioos:station:WAVCIS:CSI16:1,2009-11-03T04:00:00Z,29.4012,-89.0355,10.0,5.497,16.0,,'11111222,11111222,99999999' 
WAVCIS,ioos:station:WAVCIS:CSI16:1,2009-11-03T05:00:00Z,29.4012,-89.0355,10.0,6.445,18.0,,'11111222,11111222,99999999' 
WAVCIS,ioos:station:WAVCIS:CSI16:1,2009-11-03T06:00:00Z,29.4012,-89.0355,10.0,5.885,21.0,,'11111222,11111222,99999999' 
WAVCIS,ioos:station:WAVCIS:CSI16:1,2009-11-03T07:00:00Z,29.4012,-89.0355,10.0,6.86,20.0,,'11111222,11111222,99999999' 
WAVCIS,ioos:station:WAVCIS:CSI16:1,2009-11-03T08:00:00Z,29.4012,-89.0355,10.0,5.767,21.0,,'11111222,11111222,99999999' 
WAVCIS,ioos:station:WAVCIS:CSI16:1,2009-11-03T09:00:00Z,29.4012,-89.0355,10.0,6.405,21.0,,'11111222,11111222,99999999' 
WAVCIS,ioos:station:WAVCIS:CSI16:1,2009-11-03T10:00:00Z,29.4012,-89.0355,10.0,3.02,44.0,,'11111222,11111222,99999999' 
WAVCIS,ioos:station:WAVCIS:CSI16:1,2009-11-03T11:00:00Z,29.4012,-89.0355,10.0,4.758,57.0,,'11111222,11111222,99999999' 
WAVCIS,ioos:station:WAVCIS:CSI16:1,2009-11-03T12:00:00Z,29.4012,-89.0355,10.0,4.836,58.0,,'11111222,11111222,99999999' 
WAVCIS,ioos:station:WAVCIS:CSI16:1,2009-11-03T13:00:00Z,29.4012,-89.0355,10.0,3.854,56.0,,'11111222,11111222,99999999' 
WAVCIS,ioos:station:WAVCIS:CSI16:1,2009-11-03T14:00:00Z,29.4012,-89.0355,10.0,3.81,26.0,,'11111222,11111222,99999999' 
WAVCIS,ioos:station:WAVCIS:CSI16:1,2009-11-03T15:00:00Z,29.4012,-89.0355,10.0,4.963,23.0,,'11111222,11111222,99999999' 
WAVCIS,ioos:station:WAVCIS:CSI16:1,2009-11-03T16:00:00Z,29.4012,-89.0355,10.0,7.95,23.0,,'11111222,11111222,99999999' 
WAVCIS,ioos:station:WAVCIS:CSI16:1,2009-11-03T17:00:00Z,29.4012,-89.0355,10.0,9.23,20.0,,'11111222,11111222,99999999' 
WAVCIS,ioos:station:WAVCIS:CSI16:1,2009-11-03T18:00:00Z,29.4012,-89.0355,10.0,5.911,22.0,,'11111222,11111222,99999999' 
WAVCIS,ioos:station:WAVCIS:CSI16:1,2009-11-03T19:00:00Z,29.4012,-89.0355,10.0,3.061,56.0,,'11111222,11111222,99999999' 
WAVCIS,ioos:station:WAVCIS:CSI16:1,2009-11-03T20:00:00Z,29.4012,-89.0355,10.0,2.491,48.0,,'11111222,11111222,99999999' 
WAVCIS,ioos:station:WAVCIS:CSI16:1,2009-11-03T21:00:00Z,29.4012,-89.0355,10.0,2.585,48.0,,'11111222,11111222,99999999' 
WAVCIS,ioos:station:WAVCIS:CSI16:1,2009-11-03T22:00:00Z,29.4012,-89.0355,10.0,3.414,26.0,,'11111222,11111222,99999999' 
WAVCIS,ioos:station:WAVCIS:CSI16:1,2009-11-03T23:00:00Z,29.4012,-89.0355,10.0,5.347,14.0,,'11111222,11111222,99999999' 
WAVCIS,ioos:station:WAVCIS:CSI16:1,2009-11-04T00:00:00Z,29.4012,-89.0355,10.0,4.892,2.0,,'11111222,11111222,99999999' 
WAVCIS,ioos:station:WAVCIS:CSI16:1,2009-11-04T01:00:00Z,29.4012,-89.0355,10.0,5.051,351.0,,'11111222,11111222,99999999' 
WAVCIS,ioos:station:WAVCIS:CSI16:1,2009-11-04T02:00:00Z,29.4012,-89.0355,10.0,5.552,349.0,,'11111222,11111222,99999999' 
WAVCIS,ioos:station:WAVCIS:CSI16:1,2009-11-04T03:00:00Z,29.4012,-89.0355,10.0,6.983,1.0,,'11111222,11111222,99999999' 
WAVCIS,ioos:station:WAVCIS:CSI16:1,2009-11-04T04:00:00Z,29.4012,-89.0355,10.0,6.468,10.0,,'11111222,11111222,99999999' 
WAVCIS,ioos:station:WAVCIS:CSI16:1,2009-11-04T05:00:00Z,29.4012,-89.0355,10.0,3.885,25.0,,'11111222,11111222,99999999' 
WAVCIS,ioos:station:WAVCIS:CSI16:1,2009-11-04T06:00:00Z,29.4012,-89.0355,10.0,7.65,22.0,,'11111222,11111222,99999999' 
WAVCIS,ioos:station:WAVCIS:CSI16:1,2009-11-04T07:00:00Z,29.4012,-89.0355,10.0,7.24,23.0,,'11111222,11111222,99999999' 
WAVCIS,ioos:station:WAVCIS:CSI16:1,2009-11-04T08:00:00Z,29.4012,-89.0355,10.0,7.17,22.0,,'11111222,11111222,99999999' 
WAVCIS,ioos:station:WAVCIS:CSI16:1,2009-11-04T09:00:00Z,29.4012,-89.0355,10.0,7.52,22.0,,'11111222,11111222,99999999' 
WAVCIS,ioos:station:WAVCIS:CSI16:1,2009-11-04T10:00:00Z,29.4012,-89.0355,10.0,4.965,23.0,,'11111222,11111222,99999999' 
WAVCIS,ioos:station:WAVCIS:CSI16:1,2009-11-04T11:00:00Z,29.4012,-89.0355,10.0,2.848,34.0,,'11111222,11111222,99999999' 
WAVCIS,ioos:station:WAVCIS:CSI16:1,2009-11-04T12:00:00Z,29.4012,-89.0355,10.0,5.213,25.0,,'11111222,11111222,99999999' 
WAVCIS,ioos:station:WAVCIS:CSI16:1,2009-11-04T13:00:00Z,29.4012,-89.0355,10.0,5.091,24.0,,'11111222,11111222,99999999' 
WAVCIS,ioos:station:WAVCIS:CSI16:1,2009-11-04T14:00:00Z,29.4012,-89.0355,10.0,5.841,22.0,,'11111222,11111222,99999999' 
WAVCIS,ioos:station:WAVCIS:CSI16:1,2009-11-04T15:00:00Z,29.4012,-89.0355,10.0,4.661,24.0,,'11111222,11111222,99999999' 
WAVCIS,ioos:station:WAVCIS:CSI16:1,2009-11-04T16:00:00Z,29.4012,-89.0355,10.0,2.752,34.0,,'11111222,11111222,99999999' 
WAVCIS,ioos:station:WAVCIS:CSI16:1,2009-11-04T17:00:00Z,29.4012,-89.0355,10.0,2.266,41.0,,'11111222,11111222,99999999' 
WAVCIS,ioos:station:WAVCIS:CSI16:1,2009-11-04T18:00:00Z,29.4012,-89.0355,10.0,2.842,29.0,,'11111222,11111222,99999999' 
WAVCIS,ioos:station:WAVCIS:CSI16:1,2009-11-04T19:00:00Z,29.4012,-89.0355,10.0,4.318,20.0,,'11111222,11111222,99999999' 
WAVCIS,ioos:station:WAVCIS:CSI16:1,2009-11-04T20:00:00Z,29.4012,-89.0355,10.0,4.135,22.0,,'11111222,11111222,99999999' 
WAVCIS,ioos:station:WAVCIS:CSI16:1,2009-11-04T21:00:00Z,29.4012,-89.0355,10.0,3.381,23.0,,'11111222,11111222,99999999' 
WAVCIS,ioos:station:WAVCIS:CSI16:1,2009-11-04T22:00:00Z,29.4012,-89.0355,10.0,2.625,37.0,,'11111222,11111222,99999999' 
WAVCIS,ioos:station:WAVCIS:CSI16:1,2009-11-04T23:00:00Z,29.4012,-89.0355,10.0,3.814,65.0,,'11111222,11111222,99999999' 
WAVCIS,ioos:station:WAVCIS:CSI16:1,2009-11-05T00:00:00Z,29.4012,-89.0355,10.0,1.923,65.0,,'11111222,11111222,99999999' 
WAVCIS,ioos:station:WAVCIS:CSI16:1,2009-11-05T01:00:00Z,29.4012,-89.0355,10.0,1.451,56.0,,'11111222,11111222,99999999' 
WAVCIS,ioos:station:WAVCIS:CSI16:1,2009-11-05T02:00:00Z,29.4012,-89.0355,10.0,3.722,13.0,,'11111222,11111222,99999999' 
WAVCIS,ioos:station:WAVCIS:CSI16:1,2009-11-05T03:00:00Z,29.4012,-89.0355,10.0,3.783,12.0,,'11111222,11111222,99999999' 
WAVCIS,ioos:station:WAVCIS:CSI16:1,2009-11-05T04:00:00Z,29.4012,-89.0355,10.0,3.872,8.0,,'11111222,11111222,99999999' 
WAVCIS,ioos:station:WAVCIS:CSI16:1,2009-11-05T05:00:00Z,29.4012,-89.0355,10.0,3.835,358.0,,'11111222,11111222,99999999' 
WAVCIS,ioos:station:WAVCIS:CSI16:1,2009-11-05T06:00:00Z,29.4012,-89.0355,10.0,5.2,9.0,,'11111222,11111222,99999999' 
WAVCIS,ioos:station:WAVCIS:CSI16:1,2009-11-05T07:00:00Z,29.4012,-89.0355,10.0,6.694,5.0,,'11111222,11111222,99999999' 
WAVCIS,ioos:station:WAVCIS:CSI16:1,2009-11-05T08:00:00Z,29.4012,-89.0355,10.0,6.833,6.0,,'11111222,11111222,99999999' 
WAVCIS,ioos:station:WAVCIS:CSI16:1,2009-11-05T09:00:00Z,29.4012,-89.0355,10.0,7.03,11.0,,'11111222,11111222,99999999' 
WAVCIS,ioos:station:WAVCIS:CSI16:1,2009-11-05T10:00:00Z,29.4012,-89.0355,10.0,5.61,26.0,,'11111222,11111222,99999999' 
WAVCIS,ioos:station:WAVCIS:CSI16:1,2009-11-05T11:00:00Z,29.4012,-89.0355,10.0,7.03,15.0,,'11111222,11111222,99999999' 
WAVCIS,ioos:station:WAVCIS:CSI16:1,2009-11-05T12:00:00Z,29.4012,-89.0355,10.0,8.19,19.0,,'11111222,11111222,99999999' 
WAVCIS,ioos:station:WAVCIS:CSI16:1,2009-11-05T13:00:00Z,29.4012,-89.0355,10.0,8.4,23.0,,'11111222,11111222,99999999' 
WAVCIS,ioos:station:WAVCIS:CSI16:1,2009-11-05T14:00:00Z,29.4012,-89.0355,10.0,6.92,23.0,,'11111222,11111222,99999999' 
WAVCIS,ioos:station:WAVCIS:CSI16:1,2009-11-05T15:00:00Z,29.4012,-89.0355,10.0,7.61,25.0,,'11111222,11111222,99999999' 
WAVCIS,ioos:station:WAVCIS:CSI16:1,2009-11-05T16:00:00Z,29.4012,-89.0355,10.0,3.705,38.0,,'11111222,11111222,99999999' 
WAVCIS,ioos:station:WAVCIS:CSI16:1,2009-11-05T17:00:00Z,29.4012,-89.0355,10.0,4.105,50.0,,'11111222,11111222,99999999' 
WAVCIS,ioos:station:WAVCIS:CSI16:1,2009-11-05T18:00:00Z,29.4012,-89.0355,10.0,5.226,55.0,,'11111222,11111222,99999999' 
WAVCIS,ioos:station:WAVCIS:CSI16:1,2009-11-05T19:00:00Z,29.4012,-89.0355,10.0,6.017,56.0,,'11111222,11111222,99999999' 
WAVCIS,ioos:station:WAVCIS:CSI16:1,2009-11-05T20:00:00Z,29.4012,-89.0355,10.0,3.639,52.0,,'11111222,11111222,99999999' 
WAVCIS,ioos:station:WAVCIS:CSI16:1,2009-11-05T21:00:00Z,29.4012,-89.0355,10.0,2.856,43.0,,'11111222,11111222,99999999' 
WAVCIS,ioos:station:WAVCIS:CSI16:1,2009-11-05T22:00:00Z,29.4012,-89.0355,10.0,2.478,47.0,,'11111222,11111222,99999999' 
WAVCIS,ioos:station:WAVCIS:CSI16:1,2009-11-05T23:00:00Z,29.4012,-89.0355,10.0,3.427,28.0,,'11111222,11111222,99999999' 
WAVCIS,ioos:station:WAVCIS:CSI16:1,2009-11-06T00:00:00Z,29.4012,-89.0355,10.0,3.51,24.0,,'11111222,11111222,99999999' 
WAVCIS,ioos:station:WAVCIS:CSI16:1,2009-11-06T01:00:00Z,29.4012,-89.0355,10.0,6.543,22.0,,'11111222,11111222,99999999' 
WAVCIS,ioos:station:WAVCIS:CSI16:1,2009-11-06T02:00:00Z,29.4012,-89.0355,10.0,4.35,24.0,,'11111222,11111222,99999999' 
WAVCIS,ioos:station:WAVCIS:CSI16:1,2009-11-06T03:00:00Z,29.4012,-89.0355,10.0,4.339,26.0,,'11111222,11111222,99999999' 
WAVCIS,ioos:station:WAVCIS:CSI16:1,2009-11-06T04:00:00Z,29.4012,-89.0355,10.0,3.331,33.0,,'11111222,11111222,99999999' 
WAVCIS,ioos:station:WAVCIS:CSI16:1,2009-11-06T05:00:00Z,29.4012,-89.0355,10.0,3.119,32.0,,'11111222,11111222,99999999' 
WAVCIS,ioos:station:WAVCIS:CSI16:1,2009-11-06T06:00:00Z,29.4012,-89.0355,10.0,3.754,42.0,,'11111222,11111222,99999999' 
WAVCIS,ioos:station:WAVCIS:CSI16:1,2009-11-06T07:00:00Z,29.4012,-89.0355,10.0,3.369,49.0,,'11111222,11111222,99999999' 
WAVCIS,ioos:station:WAVCIS:CSI16:1,2009-11-06T08:00:00Z,29.4012,-89.0355,10.0,3.515,54.0,,'11111222,11111222,99999999' 
WAVCIS,ioos:station:WAVCIS:CSI16:1,2009-11-06T09:00:00Z,29.4012,-89.0355,10.0,3.595,54.0,,'11111222,11111222,99999999' 
WAVCIS,ioos:station:WAVCIS:CSI16:1,2009-11-06T10:00:00Z,29.4012,-89.0355,10.0,5.412,60.0,,'11111222,11111222,99999999' 
WAVCIS,ioos:station:WAVCIS:CSI16:1,2009-11-06T11:00:00Z,29.4012,-89.0355,10.0,5.627,59.0,,'11111222,11111222,99999999' 
WAVCIS,ioos:station:WAVCIS:CSI16:1,2009-11-06T12:00:00Z,29.4012,-89.0355,10.0,5.548,60.0,,'11111222,11111222,99999999' 
WAVCIS,ioos:station:WAVCIS:CSI16:1,2009-11-06T13:00:00Z,29.4012,-89.0355,10.0,5.498,72.0,,'11111222,11111222,99999999' 
WAVCIS,ioos:station:WAVCIS:CSI16:1,2009-11-06T14:00:00Z,29.4012,-89.0355,10.0,5.836,63.0,,'11111222,11111222,99999999' 
WAVCIS,ioos:station:WAVCIS:CSI16:1,2009-11-06T15:00:00Z,29.4012,-89.0355,10.0,6.363,63.0,,'11111222,11111222,99999999' 
WAVCIS,ioos:station:WAVCIS:CSI16:1,2009-11-06T16:00:00Z,29.4012,-89.0355,10.0,5.162,72.0,,'11111222,11111222,99999999' 
WAVCIS,ioos:station:WAVCIS:CSI16:1,2009-11-06T17:00:00Z,29.4012,-89.0355,10.0,7.15,87.0,,'11111222,11111222,99999999' 
WAVCIS,ioos:station:WAVCIS:CSI16:1,2009-11-06T18:00:00Z,29.4012,-89.0355,10.0,5.494,83.0,,'11111222,11111222,99999999' 
WAVCIS,ioos:station:WAVCIS:CSI16:1,2009-11-06T19:00:00Z,29.4012,-89.0355,10.0,5.399,80.0,,'11111222,11111222,99999999' 
WAVCIS,ioos:station:WAVCIS:CSI16:1,2009-11-06T20:00:00Z,29.4012,-89.0355,10.0,5.368,71.0,,'11111222,11111222,99999999' 
WAVCIS,ioos:station:WAVCIS:CSI16:1,2009-11-06T21:00:00Z,29.4012,-89.0355,10.0,5.052,75.0,,'11111222,11111222,99999999' 
WAVCIS,ioos:station:WAVCIS:CSI16:1,2009-11-06T22:00:00Z,29.4012,-89.0355,10.0,4.918,72.0,,'11111222,11111222,99999999' 
WAVCIS,ioos:station:WAVCIS:CSI16:1,2009-11-06T23:00:00Z,29.4012,-89.0355,10.0,7.17,96.0,,'11111222,11111222,99999999' 
WAVCIS,ioos:station:WAVCIS:CSI16:1,2009-11-07T00:00:00Z,29.4012,-89.0355,10.0,5.387,77.0,,'11111222,11111222,99999999' 
WAVCIS,ioos:station:WAVCIS:CSI16:1,2009-11-07T01:00:00Z,29.4012,-89.0355,10.0,6.472,86.0,,'11111222,11111222,99999999' 
WAVCIS,ioos:station:WAVCIS:CSI16:1,2009-11-07T02:00:00Z,29.4012,-89.0355,10.0,7.05,91.0,,'11111222,11111222,99999999' 
WAVCIS,ioos:station:WAVCIS:CSI16:1,2009-11-07T03:00:00Z,29.4012,-89.0355,10.0,7.63,102.0,,'11111222,11111222,99999999' 
WAVCIS,ioos:station:WAVCIS:CSI16:1,2009-11-07T04:00:00Z,29.4012,-89.0355,10.0,7.9,99.0,,'11111222,11111222,99999999' 
WAVCIS,ioos:station:WAVCIS:CSI16:1,2009-11-07T05:00:00Z,29.4012,-89.0355,10.0,8.17,105.0,,'11111222,11111222,99999999' 
WAVCIS,ioos:station:WAVCIS:CSI16:1,2009-11-07T06:00:00Z,29.4012,-89.0355,10.0,7.91,111.0,,'11111222,11111222,99999999' 
WAVCIS,ioos:station:WAVCIS:CSI16:1,2009-11-07T07:00:00Z,29.4012,-89.0355,10.0,7.24,114.0,,'11111222,11111222,99999999' 
WAVCIS,ioos:station:WAVCIS:CSI16:1,2009-11-07T08:00:00Z,29.4012,-89.0355,10.0,8.07,119.0,,'11111222,11111222,99999999' 
WAVCIS,ioos:station:WAVCIS:CSI16:1,2009-11-07T09:00:00Z,29.4012,-89.0355,10.0,7.12,122.0,,'11111222,11111222,99999999' 
WAVCIS,ioos:station:WAVCIS:CSI16:1,2009-11-07T10:00:00Z,29.4012,-89.0355,10.0,6.856,111.0,,'11111222,11111222,99999999' 
WAVCIS,ioos:station:WAVCIS:CSI16:1,2009-11-07T11:00:00Z,29.4012,-89.0355,10.0,6.856,119.0,,'11111222,11111222,99999999' 
WAVCIS,ioos:station:WAVCIS:CSI16:1,2009-11-07T12:00:00Z,29.4012,-89.0355,10.0,7.96,117.0,,'11111222,11111222,99999999' 
WAVCIS,ioos:station:WAVCIS:CSI16:1,2009-11-07T13:00:00Z,29.4012,-89.0355,10.0,6.785,120.0,,'11111222,11111222,99999999' 
WAVCIS,ioos:station:WAVCIS:CSI16:1,2009-11-07T14:00:00Z,29.4012,-89.0355,10.0,6.786,99.0,,'11111222,11111222,99999999' 
WAVCIS,ioos:station:WAVCIS:CSI16:1,2009-11-07T15:00:00Z,29.4012,-89.0355,10.0,6.601,94.0,,'11111222,11111222,99999999' 
WAVCIS,ioos:station:WAVCIS:CSI16:1,2009-11-07T16:00:00Z,29.4012,-89.0355,10.0,5.885,90.0,,'11111222,11111222,99999999' 
WAVCIS,ioos:station:WAVCIS:CSI16:1,2009-11-07T17:00:00Z,29.4012,-89.0355,10.0,4.317,81.0,,'11111222,11111222,99999999' 
WAVCIS,ioos:station:WAVCIS:CSI16:1,2009-11-07T18:00:00Z,29.4012,-89.0355,10.0,5.024,83.0,,'11111222,11111222,99999999' 
WAVCIS,ioos:station:WAVCIS:CSI16:1,2009-11-07T19:00:00Z,29.4012,-89.0355,10.0,5.91,88.0,,'11111222,11111222,99999999' 
WAVCIS,ioos:station:WAVCIS:CSI16:1,2009-11-07T20:00:00Z,29.4012,-89.0355,10.0,7.4,98.0,,'11111222,11111222,99999999' 
WAVCIS,ioos:station:WAVCIS:CSI16:1,2009-11-07T21:00:00Z,29.4012,-89.0355,10.0,6.157,85.0,,'11111222,11111222,99999999' 
WAVCIS,ioos:station:WAVCIS:CSI16:1,2009-11-07T22:00:00Z,29.4012,-89.0355,10.0,6.992,87.0,,'11111222,11111222,99999999' 
WAVCIS,ioos:station:WAVCIS:CSI16:1,2009-11-07T23:00:00Z,29.4012,-89.0355,10.0,6.846,85.0,,'11111222,11111222,99999999' 
WAVCIS,ioos:station:WAVCIS:CSI16:1,2009-11-08T00:00:00Z,29.4012,-89.0355,10.0,8.2,97.0,,'11111222,11111222,99999999' 
WAVCIS,ioos:station:WAVCIS:CSI16:1,2009-11-08T01:00:00Z,29.4012,-89.0355,10.0,8.64,94.0,,'11111222,11111222,99999999' 
WAVCIS,ioos:station:WAVCIS:CSI16:1,2009-11-08T02:00:00Z,29.4012,-89.0355,10.0,9.69,100.0,,'11111222,11111222,99999999' 
WAVCIS,ioos:station:WAVCIS:CSI16:1,2009-11-08T03:00:00Z,29.4012,-89.0355,10.0,8.66,101.0,,'11111222,11111222,99999999' 
WAVCIS,ioos:station:WAVCIS:CSI16:1,2009-11-08T04:00:00Z,29.4012,-89.0355,10.0,9.01,98.0,,'11111222,11111222,99999999' 
WAVCIS,ioos:station:WAVCIS:CSI16:1,2009-11-08T05:00:00Z,29.4012,-89.0355,10.0,8.54,96.0,,'11111222,11111222,99999999' 
WAVCIS,ioos:station:WAVCIS:CSI16:1,2009-11-08T06:00:00Z,29.4012,-89.0355,10.0,8.71,101.0,,'11111222,11111222,99999999' 
WAVCIS,ioos:station:WAVCIS:CSI16:1,2009-11-08T07:00:00Z,29.4012,-89.0355,10.0,9.67,105.0,,'11111222,11111222,99999999' 
WAVCIS,ioos:station:WAVCIS:CSI16:1,2009-11-08T08:00:00Z,29.4012,-89.0355,10.0,9.01,106.0,,'11111222,11111222,99999999' 
WAVCIS,ioos:station:WAVCIS:CSI16:1,2009-11-08T09:00:00Z,29.4012,-89.0355,10.0,9.66,103.0,,'11111222,11111222,99999999' 
WAVCIS,ioos:station:WAVCIS:CSI16:1,2009-11-08T10:00:00Z,29.4012,-89.0355,10.0,8.41,102.0,,'11111222,11111222,99999999' 
WAVCIS,ioos:station:WAVCIS:CSI16:1,2009-11-08T11:00:00Z,29.4012,-89.0355,10.0,6.358,83.0,,'11111222,11111222,99999999' 
WAVCIS,ioos:station:WAVCIS:CSI16:1,2009-11-08T12:00:00Z,29.4012,-89.0355,10.0,7.42,84.0,,'11111222,11111222,99999999' 
WAVCIS,ioos:station:WAVCIS:CSI16:1,2009-11-08T13:00:00Z,29.4012,-89.0355,10.0,5.293,78.0,,'11111222,11111222,99999999' 
WAVCIS,ioos:station:WAVCIS:CSI16:1,2009-11-08T14:00:00Z,29.4012,-89.0355,10.0,9.74,100.0,,'11111222,11111222,99999999' 
WAVCIS,ioos:station:WAVCIS:CSI16:1,2009-11-08T15:00:00Z,29.4012,-89.0355,10.0,9.79,98.0,,'11111222,11111222,99999999' 
WAVCIS,ioos:station:WAVCIS:CSI16:1,2009-11-08T16:00:00Z,29.4012,-89.0355,10.0,10.48,100.0,,'11111222,11111222,99999999' 
WAVCIS,ioos:station:WAVCIS:CSI16:1,2009-11-08T17:00:00Z,29.4012,-89.0355,10.0,10.0,100.0,,'11111222,11111222,99999999' 
WAVCIS,ioos:station:WAVCIS:CSI16:1,2009-11-08T18:00:00Z,29.4012,-89.0355,10.0,6.433,81.0,,'11111222,11111222,99999999' 
WAVCIS,ioos:station:WAVCIS:CSI16:1,2009-11-08T19:00:00Z,29.4012,-89.0355,10.0,6.199,80.0,,'11111222,11111222,99999999' 
WAVCIS,ioos:station:WAVCIS:CSI16:1,2009-11-08T20:00:00Z,29.4012,-89.0355,10.0,6.682,81.0,,'11111222,11111222,99999999' 
WAVCIS,ioos:station:WAVCIS:CSI16:1,2009-11-08T21:00:00Z,29.4012,-89.0355,10.0,8.33,83.0,,'11111222,11111222,99999999' 
WAVCIS,ioos:station:WAVCIS:CSI16:1,2009-11-08T22:00:00Z,29.4012,-89.0355,10.0,9.24,85.0,,'11111222,11111222,99999999' 
WAVCIS,ioos:station:WAVCIS:CSI16:1,2009-11-08T23:00:00Z,29.4012,-89.0355,10.0,5.949,76.0,,'11111222,11111222,99999999' 
WAVCIS,ioos:station:WAVCIS:CSI16:1,2009-11-09T00:00:00Z,29.4012,-89.0355,10.0,9.14,85.0,,'11111222,11111222,99999999' 
WAVCIS,ioos:station:WAVCIS:CSI16:1,2009-11-09T01:00:00Z,29.4012,-89.0355,10.0,13.0,92.0,,'11111222,11111222,99999999' 
WAVCIS,ioos:station:WAVCIS:CSI16:1,2009-11-09T02:00:00Z,29.4012,-89.0355,10.0,13.22,96.0,,'11111222,11111222,99999999' 
WAVCIS,ioos:station:WAVCIS:CSI16:1,2009-11-09T03:00:00Z,29.4012,-89.0355,10.0,11.96,99.0,,'11111222,11111222,99999999' 
WAVCIS,ioos:station:WAVCIS:CSI16:1,2009-11-09T04:00:00Z,29.4012,-89.0355,10.0,12.71,97.0,,'11111222,11111222,99999999' 
WAVCIS,ioos:station:WAVCIS:CSI16:1,2009-11-09T05:00:00Z,29.4012,-89.0355,10.0,9.37,85.0,,'11111222,11111222,99999999' 
WAVCIS,ioos:station:WAVCIS:CSI16:1,2009-11-09T06:00:00Z,29.4012,-89.0355,10.0,7.38,80.0,,'11111222,11111222,99999999' 